Location: Carnoy
(49.9849°N, 2.7558°E)
Time: 21:14:22
(UTC+00:00)

ISS - Pass Details

Date: 24 January 2020
Orbit: 416 x 422 km, 51.6° (Epoch: 17 February)

Event Time Altitude Azimuth Distance (km) Brightness Sun altitude
Rises 18:56:18 0° 251° (WSW) 2,373 1.3 -23.4°
Reaches altitude 10° 18:58:24 10° 252° (WSW) 1,508 0.0 -23.7°
Enters shadow 19:00:41 40° 251° (WSW) 638 -2.4 -24.1°
